"Pseudo-MPEC" for C0ZDJH5

Created 2025 Jan 13 21:31:03 UT using Find_Orb

Click here for an explanation of pseudo-MPECs

 
 Astrometry: 
     C0ZDJH5  C2024 12 26.28501204 36 24.707+20 15 37.76FixDup   21.12GVNEOCPV00
     C0ZDJH5* C2024 12 26.28501204 36 24.707+20 15 37.76Duplicate21.12GVNEOCPV00
     C0ZDJH5  C2024 12 26.29062104 36 28.339+20 15 21.71   ~CQF2 21.65GVNEOCPV00
     C0ZDJH5  C2024 12 26.29622804 36 32.033+20 15 05.29   ~CQF2 20.17GVNEOCPV00
     C0ZDJH5 KB2024 12 26.82015 04 45 01.75 +19 47 57.1    ~CQL2 19.9 RZNEOCP106
     C0ZDJH5 KB2024 12 26.83394 04 45 13.00 +19 47 18.4    ~CQL2 19.8 RZNEOCP106
     C0ZDJH5 KB2024 12 26.84083 04 45 18.58 +19 47 00.4    ~CQL2       ZNEOCP106

Station data:
(106) Črni Vrh  (N45.945905 E14.071100)  Slovenia.  Observer J. Skvarč. 0.6-m
   f/3.3 Deltagraph + CCD.
(V00) Kitt Peak-Bok  (N31.963125 W111.600190)  US/Arizona.  Observers T. A.
   Pruyne, B. M. Africano, E. J. Christensen, G. A. Farneth, D. C. Fuls, A.
   R. Gibbs, A. D. Grauer, H. Gröller, J. A. Johnson, R. A. Kowalski, S. M.
   Larson, G. J. Leonard, D. Rankin, R. L. Seaman, F. C. Shelly, K. W.
   Wierzchoś. 2.25-m reflector + 4x4K mosaic CCD.

Orbital elements:  C0ZDJH5
   Perihelion 2025 Jan 16.88434 +/- 0.626 TT = 21:13:26 (JD 2460692.38434)
Epoch 2024 Dec 27.0 TT = JDT 2460671.5   Earth MOID: 0.0033   Ma: 0.0153
M 346.08974773 +/- 0.32             (J2000 ecliptic)             AutoNEOCP
n   0.66606149 +/- 0.00587          Peri.  206.42618 +/- 0.8
a   1.29855344 +/- 0.00764          Node   272.05960 +/- 0.038
e   0.2452497 +/- 0.00538           Incl.    0.75962 +/- 0.020
P   1.480/540.480d         H 29.00  G  0.15   U  9.3
q 0.98008350 +/- 0.00145    Q 1.61702338 +/- 0.0165
From 7 observations 2024 Dec. 26 (13.3 hr); mean residual 0".31
Residuals in arcseconds: 
241226 V00  .11+  .15-    241226 V00  .10+  .12+    241226 106  .04-  .81+    
241226 V00  .11+  .15-    241226 106  .12-  .13-    
241226 V00  .21-  .06+    241226 106  .16+  .70-    

Ephemerides (geocentric):
Date (UTC) HH   RA             Dec           delta  r     elong  mag " sig PA
---- --------  ------------   ------------  ------ ------ -----  --- --------
2025 01 13 22  13 54 05.408   -22 36 46.02  .02599 .97907  79.3 24.6 6041  95
2025 01 13 23  13 54 18.425   -22 36 59.61  .02607 .97906  79.3 24.6 6031  95
2025 01 14 00  13 54 31.367   -22 37 13.08  .02616 .97904  79.3 24.6 6022  95
2025 01 14 01  13 54 44.234   -22 37 26.42  .02624 .97903  79.3 24.6 6013  95
2025 01 14 02  13 54 57.027   -22 37 39.65  .02632 .97902  79.3 24.6 6004  95
2025 01 14 03  13 55 09.746   -22 37 52.76  .02640 .97900  79.3 24.7 5995  95
2025 01 14 04  13 55 22.392   -22 38 05.75  .02649 .97899  79.3 24.7 5986  95
2025 01 14 05  13 55 34.966   -22 38 18.63  .02657 .97898  79.3 24.7 5977  95
2025 01 14 06  13 55 47.468   -22 38 31.40  .02665 .97896  79.3 24.7 5968  95
2025 01 14 07  13 55 59.899   -22 38 44.05  .02673 .97895  79.3 24.7 5959  95
2025 01 14 08  13 56 12.260   -22 38 56.60  .02681 .97894  79.3 24.7 5950  95
2025 01 14 09  13 56 24.551   -22 39 09.03  .02690 .97892  79.3 24.7 5942  95
2025 01 14 10  13 56 36.774   -22 39 21.36  .02698 .97891  79.2 24.7 5933  95
2025 01 14 11  13 56 48.928   -22 39 33.59  .02706 .97890  79.2 24.7 5924  94
2025 01 14 12  13 57 01.014   -22 39 45.71  .02714 .97889  79.2 24.7 5916  94
2025 01 14 13  13 57 13.033   -22 39 57.73  .02723 .97887  79.2 24.7 5907  94
2025 01 14 14  13 57 24.986   -22 40 09.65  .02731 .97886  79.2 24.7 5899  94
2025 01 14 15  13 57 36.873   -22 40 21.47  .02739 .97885  79.2 24.7 5891  94
2025 01 14 16  13 57 48.694   -22 40 33.19  .02747 .97884  79.2 24.7 5882  94
2025 01 14 17  13 58 00.451   -22 40 44.81  .02756 .97883  79.2 24.7 5874  94
2025 01 14 18  13 58 12.143   -22 40 56.34  .02764 .97881  79.2 24.7 5866  94
2025 01 14 19  13 58 23.772   -22 41 07.77  .02772 .97880  79.2 24.8 5858  94
2025 01 14 20  13 58 35.339   -22 41 19.12  .02780 .97879  79.2 24.8 5850  94
2025 01 14 21  13 58 46.842   -22 41 30.37  .02788 .97878  79.2 24.8 5842  94
2025 01 14 22  13 58 58.284   -22 41 41.53  .02797 .97877  79.2 24.8 5834  94
2025 01 14 23  13 59 09.664   -22 41 52.60  .02805 .97876  79.2 24.8 5826  94
2025 01 15 00  13 59 20.984   -22 42 03.58  .02813 .97875  79.2 24.8 5818  94
2025 01 15 01  13 59 32.243   -22 42 14.48  .02821 .97874  79.2 24.8 5810  94
2025 01 15 02  13 59 43.443   -22 42 25.30  .02830 .97873  79.2 24.8 5803  94
2025 01 15 03  13 59 54.584   -22 42 36.02  .02838 .97872  79.2 24.8 5795  94
2025 01 15 04  14 00 05.665   -22 42 46.67  .02846 .97871  79.2 24.8 5787  94
2025 01 15 05  14 00 16.689   -22 42 57.23  .02854 .97870  79.2 24.8 5780  94
2025 01 15 06  14 00 27.655   -22 43 07.71  .02863 .97869  79.2 24.8 5772  94
2025 01 15 07  14 00 38.564   -22 43 18.12  .02871 .97868  79.2 24.8 5765  94
2025 01 15 08  14 00 49.416   -22 43 28.44  .02879 .97867  79.2 24.8 5757  94
2025 01 15 09  14 01 00.212   -22 43 38.69  .02887 .97866  79.2 24.8 5750  94
2025 01 15 10  14 01 10.952   -22 43 48.86  .02895 .97865  79.2 24.8 5743  94
2025 01 15 11  14 01 21.637   -22 43 58.95  .02904 .97864  79.2 24.9 5736  94
2025 01 15 12  14 01 32.267   -22 44 08.97  .02912 .97863  79.2 24.9 5728  94
2025 01 15 13  14 01 42.843   -22 44 18.92  .02920 .97862  79.2 24.9 5721  94
2025 01 15 14  14 01 53.365   -22 44 28.79  .02928 .97861  79.2 24.9 5714  94
2025 01 15 15  14 02 03.834   -22 44 38.60  .02937 .97860  79.2 24.9 5707  94
2025 01 15 16  14 02 14.250   -22 44 48.33  .02945 .97859  79.2 24.9 5700  94
2025 01 15 17  14 02 24.614   -22 44 57.99  .02953 .97858  79.2 24.9 5693  94
2025 01 15 18  14 02 34.925   -22 45 07.58  .02961 .97857  79.2 24.9 5686  94
2025 01 15 19  14 02 45.185   -22 45 17.11  .02969 .97857  79.3 24.9 5679  94
2025 01 15 20  14 02 55.393   -22 45 26.57  .02978 .97856  79.3 24.9 5673  94
2025 01 15 21  14 03 05.551   -22 45 35.96  .02986 .97855  79.3 24.9 5666  94